Location: Unspecified
(44.0704°N, 88.6889°W)
Time: 06:47:49
(UTC+02:00)

Altair - Pass Details

Date: 22 June 2019
Orbit: 1501 x 1683 km, 47.2° (Epoch: 21 August)

Event Time Altitude Azimuth Distance (km) Brightness Sun altitude
Rises 02:44:03 0° 212° (SSW) 4,667 10.1 8.1°
Reaches altitude 10° 02:47:13 10° 206° (SSW) 3,708 9.6 7.6°
Maximum altitude 02:55:54 44° 138° (SE) 2,083 7.9 6.2°
Drops below altitude 10° 03:04:54 10° 71° (ENE) 3,854 9.2 4.8°
Sets 03:08:15 0° 65° (ENE) 4,867 9.8 4.2°
